STARLINK-3330 (50836 NORAD) Tracking and Keplerian Element Data

This shows tracking and keplerian element data for the satellite.

Feedback or suggestion? Click here.




ElementValue
Catalog50836
NameSTARLINK-3330
Epoch Orbit380
Epoch Day22.91667824
Epoch Year2022
RAAN119.7547
Inclination53.2175
Eccentricity0.0001093
Argument of Perigee63.6972
Mean Anonmoly254.1312
Mean Motion15.75329681
Decay Rate-0.00821374
L11 50836U 22001AK 22022.91667824 -.00821374 00000+0 -58729-2 0 9997
L22 50836 53.2175 119.7547 0001093 63.6972 254.1312 15.75329681 3803

Live tracking and technical data element details for STARLINK-3330 (NORAD 50836). STARLINK-3330 can be tracked NOW for your location showing map with azimuth and elevation plus other details from your city location.

Track the satellite on the map from your city or location and see movement details for azimuth, elevation, latitude, longitude, range, height, and movement on the map or in text.







IsCatalogInMostPopularTable: catalog: 50836, numindb: 3
Update: records affected: 1



GetName: 50836 STARLINK-3330

Hit Count: updated at: Sun, 23 Jan 2022 23:47:20 GMT